| time (UTC) | temp F | wind direction | speed MPH | gust MPH | rain 1hr in | rain 24hr in | rain mn in | humidity % | barometer mb |
| 20260906204555 | 78 | 285 | 2.0 | 10.0 | 0.00 | 0.01 | 0.01 | 76 | 1012.7 |
| 20260906203030 | 77 | 141 | 2.0 | 11.0 | 0.00 | 0.01 | 0.01 | 76 | 1012.7 |
| 20260906201600 | 77 | 132 | 2.0 | 10.0 | 0.00 | 0.01 | 0.01 | 77 | 1013.0 |
| 20260906200019 | 77 | 117 | 5.0 | 10.0 | 0.00 | 0.01 | 0.01 | 75 | 1013.0 |
| 20260906194546 | 78 | 97 | 2.0 | 8.0 | 0.00 | 0.01 | 0.01 | 75 | 1013.3 |
| 20260906193015 | 78 | 117 | 0.0 | 8.0 | 0.00 | 0.01 | 0.01 | 75 | 1013.5 |
| 20260906191557 | 78 | 141 | 2.0 | 6.0 | 0.00 | 0.01 | 0.01 | 76 | 1013.4 |
| 20260906190017 | 76 | 54 | 0.0 | 9.0 | 0.00 | 0.01 | 0.01 | 78 | 1013.7 |
| 20260906184601 | 75 | 120 | 1.0 | 8.0 | 0.00 | 0.01 | 0.01 | 79 | 1013.9 |
| 20260906183000 | 75 | 103 | 0.0 | 6.0 | 0.00 | 0.01 | 0.01 | 81 | 1014.0 |
| 20260906181534 | 74 | 141 | 0.0 | 5.0 | 0.00 | 0.01 | 0.01 | 82 | 1014.4 |
| 20260906174516 | 70 | 151 | 3.0 | 9.0 | 0.00 | 0.01 | 0.01 | 89 | 1014.5 |
| 20260906173058 | 70 | 126 | 3.0 | 6.0 | 0.00 | 0.01 | 0.01 | 90 | 1014.8 |
| 20260906171518 | 69 | 79 | 5.0 | 9.0 | 0.00 | 0.01 | 0.01 | 91 | 1015.0 |
| 20260906170112 | 69 | 49 | 0.0 | 4.0 | 0.00 | 0.01 | 0.01 | 92 | 1015.2 |
| 20260906164519 | 68 | 76 | 0.0 | 7.0 | 0.00 | 0.01 | 0.01 | 94 | 1015.3 |
| 20260906163102 | 68 | 128 | 0.0 | 3.0 | 0.00 | 0.01 | 0.01 | 95 | 1015.4 |
| 20260906161536 | 67 | 101 | 1.0 | 6.0 | 0.00 | 0.01 | 0.01 | 97 | 1015.3 |
| 20260906160029 | 66 | 107 | 2.0 | 8.0 | 0.00 | 0.01 | 0.01 | 98 | 1015.3 |
| 20260906154507 | 66 | 99 | 2.0 | 4.0 | 0.00 | 0.01 | 0.01 | 99 | 1015.3 |
| 20260906153041 | 65 | 130 | 0.0 | 6.0 | 0.00 | 0.01 | 0.01 | 99 | 1015.3 |
| 20260906151508 | 65 | 132 | 0.0 | 8.0 | 0.00 | 0.01 | 0.01 | 99 | 1015.3 |
| 20260906150037 | 65 | 151 | 0.0 | 6.0 | 0.00 | 0.01 | 0.01 | 99 | 1015.2 |
| 20260906144518 | 65 | 66 | 3.0 | 8.0 | 0.00 | 0.01 | 0.01 | 99 | 1015.3 |
| 20260906143037 | 65 | 131 | 0.0 | 4.0 | 0.00 | 0.01 | 0.01 | 99 | 1015.2 |
| 20260906141514 | 64 | 117 | 0.0 | 3.0 | 0.00 | 0.01 | 0.01 | 99 | 1015.3 |
| 20260906140038 | 64 | 77 | 0.0 | 3.0 | 0.00 | 0.01 | 0.01 | 99 | 1015.5 |
| 20260906134600 | 64 | 155 | 0.0 | 1.0 | 0.00 | 0.01 | 0.01 | 99 | 1015.5 |
| 20260906133030 | 64 | 105 | 1.0 | 5.0 | 0.00 | 0.01 | 0.01 | 99 | 1015.6 |
| 20260906131610 | 64 | 126 | 0.0 | 3.0 | 0.00 | 0.01 | 0.01 | 99 | 1015.6 |
| 20260906130024 | 64 | 122 | 0.0 | 2.0 | 0.00 | 0.01 | 0.01 | 99 | 1015.5 |
| 20260906124605 | 64 | 134 | 1.0 | 5.0 | 0.00 | 0.01 | 0.01 | 99 | 1015.5 |
| 20260906123025 | 64 | 132 | 1.0 | 5.0 | 0.00 | 0.01 | 0.01 | 99 | 1015.4 |
| 20260906121544 | 64 | 141 | 0.0 | 2.0 | 0.00 | 0.01 | 0.01 | 99 | 1015.4 |
| 20260906120004 | 63 | 168 | 1.0 | 5.0 | 0.00 | 0.01 | 0.01 | 99 | 1015.1 |
| 20260906114531 | 63 | 119 | 0.0 | 0.0 | 0.00 | 0.01 | 0.01 | 99 | 1015.0 |
| 20260906113002 | 63 | 116 | 0.0 | 5.0 | 0.00 | 0.01 | 0.01 | 99 | 1015.0 |
| 20260906111547 | 63 | 86 | 1.0 | 4.0 | 0.01 | 0.01 | 0.01 | 99 | 1014.9 |
| 20260906110017 | 63 | 136 | 0.0 | 0.0 | 0.01 | 0.01 | 0.01 | 99 | 1014.9 |
| 20260906104528 | 63 | 101 | 0.0 | 0.0 | 0.01 | 0.01 | 0.01 | 98 | 1014.7 |
| 20260906103109 | 62 | 95 | 0.0 | 3.0 | 0.01 | 0.01 | 0.01 | 98 | 1014.6 |
| 20260906101533 | 62 | 90 | 0.0 | 0.0 | 0.00 | 0.00 | 0.00 | 98 | 1014.6 |
| 20260906100006 | 62 | 98 | 0.0 | 0.0 | 0.00 | 0.00 | 0.00 | 98 | 1014.6 |
| 20260906094530 | 62 | 98 | 0.0 | 0.0 | 0.00 | 0.00 | 0.00 | 97 | 1014.6 |
| 20260906093037 | 62 | 101 | 0.0 | 0.0 | 0.00 | 0.00 | 0.00 | 97 | 1014.6 |
| 20260906091514 | 62 | 101 | 0.0 | 0.0 | 0.00 | 0.00 | 0.00 | 97 | 1014.5 |
| 20260906090056 | 62 | 101 | 0.0 | 0.0 | 0.00 | 0.00 | 0.00 | 97 | 1014.5 |
| 20260906084530 | 62 | 101 | 0.0 | 0.0 | 0.00 | 0.00 | 0.00 | 97 | 1014.5 |
| 20260906083040 | 62 | 101 | 0.0 | 0.0 | 0.00 | 0.00 | 0.00 | 97 | 1014.5 |
| 20260906081600 | 63 | 101 | 0.0 | 3.0 | 0.00 | 0.00 | 0.00 | 97 | 1014.4 |
| 20260906080023 | 63 | 105 | 0.0 | 0.0 | 0.00 | 0.00 | 0.00 | 97 | 1014.6 |
| 20260906074559 | 63 | 80 | 0.0 | 0.0 | 0.00 | 0.00 | 0.00 | 97 | 1014.6 |
| 20260906073019 | 63 | 99 | 0.0 | 0.0 | 0.00 | 0.00 | 0.00 | 97 | 1014.5 |
| 20260906071601 | 63 | 67 | 0.0 | 3.0 | 0.00 | 0.00 | 0.00 | 97 | 1014.6 |
| 20260906070020 | 63 | 87 | 0.0 | 0.0 | 0.00 | 0.00 | 0.00 | 97 | 1014.6 |
| 20260906064544 | 63 | 82 | 0.0 | 1.0 | 0.00 | 0.00 | 0.00 | 97 | 1014.7 |
| 20260906063022 | 63 | 90 | 0.0 | 0.0 | 0.00 | 0.00 | 0.00 | 97 | 1014.7 |
| 20260906061502 | 63 | 94 | 0.0 | 3.0 | 0.00 | 0.00 | 0.00 | 97 | 1014.6 |
| 20260906060030 | 64 | 115 | 0.0 | 1.0 | 0.00 | 0.00 | 0.00 | 97 | 1014.8 |
| 20260906054509 | 63 | 115 | 0.0 | 5.0 | 0.00 | 0.00 | 0.00 | 96 | 1014.8 |
| 20260906053035 | 63 | 123 | 0.0 | 0.0 | 0.00 | 0.00 | 0.00 | 96 | 1014.8 |
| 20260906051541 | 64 | 87 | 0.0 | 1.0 | 0.00 | 0.00 | 0.00 | 95 | 1015.1 |
| 20260906050105 | 64 | 118 | 0.0 | 4.0 | 0.00 | 0.00 | 0.00 | 95 | 1015.3 |
| 20260906044534 | 64 | 97 | 0.0 | 6.0 | 0.00 | 0.00 | 0.00 | 95 | 1015.2 |
| 20260906041524 | 64 | 108 | 0.0 | 4.0 | 0.00 | 0.00 | 0.00 | 95 | 1015.2 |
| 20260906040105 | 64 | 121 | 0.0 | 0.0 | 0.00 | 0.00 | 0.00 | 96 | 1015.2 |
| 20260906034537 | 64 | 122 | 0.0 | 0.0 | 0.00 | 0.00 | 0.00 | 96 | 1015.0 |
| 20260906033035 | 63 | 92 | 0.0 | 1.0 | 0.00 | 0.00 | 0.00 | 96 | 1014.9 |
| 20260906031514 | 63 | 79 | 0.0 | 0.0 | 0.00 | 0.00 | 0.00 | 94 | 1015.1 |
| 20260906030036 | 63 | 105 | 0.0 | 0.0 | 0.00 | 0.00 | 0.00 | 94 | 1015.1 |
| 20260906024513 | 64 | 105 | 0.0 | 0.0 | 0.00 | 0.00 | 0.00 | 93 | 1015.0 |
| 20260906023057 | 64 | 105 | 0.0 | 0.0 | 0.00 | 0.00 | 0.00 | 92 | 1015.1 |
| 20260906021540 | 65 | 105 | 0.0 | 0.0 | 0.00 | 0.00 | 0.00 | 90 | 1014.9 |
| 20260906020004 | 65 | 105 | 0.0 | 0.0 | 0.00 | 0.00 | 0.00 | 89 | 1014.9 |
| 20260906014527 | 66 | 105 | 0.0 | 0.0 | 0.00 | 0.00 | 0.00 | 89 | 1014.5 |
| 20260906013004 | 66 | 105 | 0.0 | 0.0 | 0.00 | 0.00 | 0.00 | 88 | 1014.2 |
| 20260906011524 | 67 | 105 | 0.0 | 0.0 | 0.00 | 0.00 | 0.00 | 88 | 1013.8 |
| 20260906010002 | 68 | 105 | 0.0 | 0.0 | 0.00 | 0.00 | 0.00 | 87 | 1013.4 |
| 20260906004524 | 68 | 107 | 0.0 | 0.0 | 0.00 | 0.00 | 0.00 | 86 | 1013.4 |
| 20260906003104 | 69 | 95 | 0.0 | 0.0 | 0.00 | 0.00 | 0.00 | 85 | 1013.3 |
| 20260906001540 | 69 | 146 | 0.0 | 0.0 | 0.00 | 0.00 | 0.00 | 83 | 1013.2 |
| 20260906000105 | 70 | 157 | 0.0 | 1.0 | 0.00 | 0.00 | 0.00 | 82 | 1013.1 |
| 20260905234542 | 70 | 76 | 0.0 | 8.0 | 0.00 | 0.00 | 0.00 | 82 | 1013.2 |
| 20260905233018 | 70 | 115 | 0.0 | 10.0 | 0.00 | 0.00 | 0.00 | 82 | 1013.3 |
| 20260905231556 | 70 | 116 | 0.0 | 0.0 | 0.00 | 0.00 | 0.00 | 81 | 1013.1 |
| 20260905230034 | 70 | 107 | 0.0 | 12.0 | 0.00 | 0.00 | 0.00 | 81 | 1013.3 |
| 20260905224549 | 71 | 135 | 0.0 | 11.0 | 0.00 | 0.00 | 0.00 | 80 | 1013.1 |
| 20260905223040 | 71 | 141 | 2.0 | 12.0 | 0.00 | 0.00 | 0.00 | 79 | 1013.2 |
| 20260905221604 | 71 | 129 | 0.0 | 12.0 | 0.00 | 0.00 | 0.00 | 79 | 1013.4 |
| 20260905220040 | 71 | 100 | 2.0 | 13.0 | 0.00 | 0.00 | 0.00 | 79 | 1013.3 |
| 20260905214515 | 71 | 92 | 6.0 | 14.0 | 0.00 | 0.00 | 0.00 | 76 | 1013.3 |
| 20260905213037 | 72 | 114 | 3.0 | 14.0 | 0.00 | 0.00 | 0.00 | 75 | 1013.2 |
| 20260905211514 | 72 | 101 | 2.0 | 17.0 | 0.00 | 0.00 | 0.00 | 76 | 1013.6 |
| 20260905210052 | 72 | 165 | 2.0 | 12.0 | 0.00 | 0.00 | 0.00 | 77 | 1013.9 |